Redmond, OR

5:14 AM PDT on July 22, 2017 (GMT -0700)
Roberts Field Airport

Weather History for KRDM - February, 2013

Change the Weather History Date:

Friday, February 22, 2013

  Actual Average Record
Temperature  
Mean Temperature 39 °F 36 °F  
Max Temperature 48 °F 48 °F 69 °F (1990)
Min Temperature 29 °F 24 °F 12 °F (2010)
Degree Days  
Heating Degree Days 26 29  
Month to date heating degree days 652 663  
Since 1 July heating degree days 4297 4503  
Cooling Degree Days 0 0  
Month to date cooling degree days 0 0  
Year to date cooling degree days 0 0  
Moisture  
Dew Point 27 °F    
Average Humidity 67    
Maximum Humidity 85    
Minimum Humidity 49    
Precipitation  
Precipitation 0.01 in 0.02 in 0.35 in (1952)
Month to date precipitation 0.01 0.52  
Year to date precipitation 0.42 1.49  
Sea Level Pressure  
Sea Level Pressure 29.98 in    
Wind  
Wind Speed 11 mph (SW)    
Max Wind Speed 28 mph    
Max Gust Speed 44 mph    
Visibility 8 miles    
Events Rain , Snow    
T = Trace of Precipitation, MM = Missing Value Source: NWS Daily Summary

Daily Weather History Graph

Daily Weather History Graph

Search for Another Location

Airport or City:

Trip Planner

Search our weather history database for the weather conditions in past years. The results will help you decide how hot, cold, wet, or windy it might be!

Date:

Astronomy

Feb. 22, 2013 Rise Set
Actual Time 6:52 AM PST 5:43 PM PST
Civil Twilight 6:23 AM PST 6:13 PM PST
Nautical Twilight 5:49 AM PST 6:46 PM PST
Astronomical Twilight 5:16 AM PST 7:20 PM PST
Moon 2:56 PM PST 4:45 AM PST
Length of Visible Light 11h 49m
Length of Day
10h 51m
Waxing Gibbous, 91% of the Moon is Illuminated
Feb 22
Waxing Gibbous
Feb 25
Full
Mar 4
Last Quarter
Mar 11
New
Mar 19
First Quarter

Hourly Weather History & Observations

Time (PST) Temp. Windchill Dew Point Humidity Pressure Visibility Wind Dir Wind Speed Gust Speed Precip Events Conditions
12:56 AM 30.9 °F - 26.1 °F 82% 30.14 in 10.0 mi Calm Calm - N/A   Overcast
1:56 AM 30.0 °F - 25.0 °F 82% 30.13 in 10.0 mi Calm Calm - N/A   Overcast
2:56 AM 30.0 °F 26.5 °F 25.0 °F 82% 30.12 in 10.0 mi ENE 3.5 mph - N/A   Partly Cloudy
3:56 AM 30.0 °F - 26.1 °F 85% 30.11 in 10.0 mi Calm Calm - N/A   Overcast
4:56 AM 30.0 °F 25.2 °F 26.1 °F 85% 30.12 in 10.0 mi NE 4.6 mph - N/A   Mostly Cloudy
5:56 AM 30.0 °F 25.2 °F 26.1 °F 85% 30.11 in 10.0 mi East 4.6 mph - N/A   Scattered Clouds
6:56 AM 32.0 °F 27.5 °F 26.1 °F 79% 30.10 in 10.0 mi South 4.6 mph - N/A   Overcast
7:56 AM 37.0 °F 32.4 °F 25.0 °F 62% 30.08 in 10.0 mi SSW 5.8 mph - N/A   Overcast
8:56 AM 37.9 °F 29.2 °F 25.0 °F 60% 30.05 in 10.0 mi SSW 15.0 mph 23.0 mph N/A   Overcast
9:56 AM 39.0 °F 30.3 °F 24.1 °F 55% 30.04 in 10.0 mi South 16.1 mph - N/A   Mostly Cloudy
11:56 AM 43.0 °F 35.7 °F 27.0 °F 53% 29.97 in 10.0 mi South 15.0 mph 20.7 mph N/A   Mostly Cloudy
12:56 PM 46.0 °F 39.6 °F 28.0 °F 50% 29.94 in 10.0 mi SSW 15.0 mph 26.5 mph N/A   Overcast
1:56 PM 45.0 °F 37.4 °F 28.9 °F 53% 29.91 in 10.0 mi SW 18.4 mph 26.5 mph N/A   Mostly Cloudy
2:56 PM 42.1 °F 34.2 °F 30.9 °F 65% 29.92 in 10.0 mi SSW 16.1 mph 26.5 mph 0.00 in   Overcast
3:56 PM 43.0 °F 36.8 °F 32.0 °F 65% 29.91 in 10.0 mi South 11.5 mph - 0.00 in   Mostly Cloudy
4:56 PM 41.0 °F 34.3 °F 30.9 °F 67% 29.88 in 10.0 mi South 11.5 mph - N/A   Mostly Cloudy
5:56 PM 39.9 °F 32.5 °F 30.0 °F 68% 29.87 in 10.0 mi South 12.7 mph - N/A   Overcast
6:56 PM 39.0 °F 34.8 °F 28.9 °F 67% 29.86 in 10.0 mi SW 5.8 mph - N/A   Scattered Clouds
7:56 PM 37.0 °F 25.6 °F 30.9 °F 79% 29.90 in 9.0 mi NW 24.2 mph 35.7 mph 0.00 in Rain Light Rain
8:11 PM 33.8 °F 20.8 °F 30.2 °F 87% 29.86 in 1.5 mi WNW 26.5 mph 43.7 mph 0.01 in Snow Light Snow
8:21 PM 33.8 °F 22.2 °F 26.6 °F 75% 29.85 in 4.0 mi West 20.7 mph 29.9 mph 0.01 in Snow Light Snow
8:35 PM 33.8 °F 23.9 °F 26.6 °F 75% 29.85 in 10.0 mi West 15.0 mph - 0.01 in   Overcast
8:56 PM 34.0 °F 24.6 °F 26.1 °F 73% 29.88 in 10.0 mi West 13.8 mph - 0.01 in   Mostly Cloudy
9:51 PM 32.0 °F 20.1 °F 28.4 °F 87% 29.92 in 1.8 mi West 19.6 mph 27.6 mph 0.00 in Snow Light Snow
9:56 PM 32.0 °F 20.8 °F 28.9 °F 88% 29.96 in 1.0 mi West 17.3 mph 27.6 mph 0.00 in Snow Light Snow
10:03 PM 32.0 °F 19.2 °F 28.4 °F 87% 29.92 in 2.0 mi West 23.0 mph 31.1 mph 0.00 in Snow Light Snow
10:11 PM 32.0 °F 20.5 °F 26.6 °F 80% 29.93 in 8.0 mi West 18.4 mph 31.1 mph 0.00 in Snow Light Snow
10:56 PM 30.0 °F 18.7 °F 24.1 °F 79% 29.97 in 10.0 mi West 16.1 mph 25.3 mph 0.00 in   Partly Cloudy
11:56 PM 28.9 °F 20.4 °F 24.1 °F 82% 30.00 in 10.0 mi West 9.2 mph - N/A   Clear